Hourly Weather Rudenko

Today, 20 April, Tuesday

Time Temperature Precipitation Wind Pressure Humidity
00:00 +7°C° 0 mm 3 mps 740 mmHg 85%
01:00 +5°C° 0 mm 3 mps 740 mmHg 87%
02:00 +5°C° 0 mm 2 mps 740 mmHg 89%
03:00 +5°C° 0 mm 2 mps 740 mmHg 90%
04:00 +5°C° 0 mm 2 mps 740 mmHg 90%
05:00 +4°C° 0 mm 2 mps 740 mmHg 91%
06:00 +5°C° 0 mm 2 mps 740 mmHg 86%
07:00 +6°C° 0 mm 2 mps 740 mmHg 82%
08:00 +7°C° 0 mm 2 mps 740 mmHg 78%
09:00 +9°C° 0.1 mm 2 mps 740 mmHg 71%
10:00 +10°C° 0.1 mm 3 mps 740 mmHg 65%
11:00 +11°C° 0.1 mm 3 mps 739 mmHg 59%
12:00 +12°C° 0.1 mm 3 mps 739 mmHg 57%
13:00 +12°C° 0.1 mm 3 mps 739 mmHg 55%
14:00 +13°C° 0.1 mm 3 mps 738 mmHg 52%
15:00 +12°C° 0.3 mm 3 mps 738 mmHg 55%
16:00 +12°C° 0.3 mm 3 mps 738 mmHg 58%
17:00 +12°C° 0.3 mm 3 mps 738 mmHg 60%
18:00 +12°C° 0.2 mm 2 mps 738 mmHg 66%
19:00 +9°C° 0.2 mm 2 mps 738 mmHg 73%
20:00 +9°C° 0.2 mm 1 mps 738 mmHg 79%
21:00 +9°C° 0 mm 1 mps 738 mmHg 80%
22:00 +8°C° 0 mm 1 mps 738 mmHg 82%
23:00 +7°C° 0 mm 0 mps 738 mmHg 83%

Tomorrow, 21 April, Wednesday

Time Temperature Precipitation Wind Pressure Humidity
00:00 +7°C° 0 mm 1 mps 738 mmHg 84%
01:00 +7°C° 0 mm 1 mps 738 mmHg 86%
02:00 +6°C° 0 mm 1 mps 738 mmHg 87%
03:00 +5°C° 0 mm 2 mps 738 mmHg 88%
04:00 +5°C° 0 mm 2 mps 738 mmHg 90%
05:00 +5°C° 0 mm 2 mps 738 mmHg 91%
06:00 +5°C° 0 mm 3 mps 738 mmHg 88%
07:00 +7°C° 0 mm 3 mps 739 mmHg 84%
08:00 +7°C° 0 mm 4 mps 739 mmHg 81%
09:00 +10°C° 0.3 mm 4 mps 739 mmHg 73%
10:00 +10°C° 0.3 mm 5 mps 739 mmHg 66%
11:00 +13°C° 0.3 mm 5 mps 738 mmHg 58%
12:00 +13°C° 0.3 mm 5 mps 738 mmHg 56%
13:00 +14°C° 0.3 mm 5 mps 738 mmHg 54%
14:00 +14°C° 0.3 mm 5 mps 738 mmHg 53%
15:00 +13°C° 0.4 mm 5 mps 738 mmHg 59%
16:00 +13°C° 0.4 mm 5 mps 738 mmHg 65%
17:00 +12°C° 0.4 mm 5 mps 738 mmHg 71%
18:00 +11°C° 0.4 mm 4 mps 738 mmHg 76%
19:00 +10°C° 0.4 mm 3 mps 738 mmHg 82%
20:00 +9°C° 0.4 mm 3 mps 739 mmHg 88%
21:00 +8°C° 0.2 mm 3 mps 739 mmHg 89%
22:00 +7°C° 0.2 mm 4 mps 739 mmHg 89%
23:00 +7°C° 0.2 mm 4 mps 739 mmHg 90%

Day after tomorrow, 22 April, Thursday

Time Temperature Precipitation Wind Pressure Humidity
00:00 +6°C° 0 mm 4 mps 739 mmHg 91%
01:00 +6°C° 0 mm 4 mps 739 mmHg 92%
02:00 +5°C° 0 mm 3 mps 739 mmHg 93%
03:00 +5°C° 0 mm 3 mps 739 mmHg 93%
04:00 +5°C° 0 mm 3 mps 739 mmHg 93%
05:00 +5°C° 0 mm 3 mps 739 mmHg 94%
06:00 +7°C° 0 mm 3 mps 739 mmHg 90%
07:00 +8°C° 0 mm 3 mps 740 mmHg 87%
08:00 +8°C° 0 mm 4 mps 740 mmHg 84%
09:00 +10°C° 0.2 mm 4 mps 740 mmHg 78%
10:00 +12°C° 0.2 mm 4 mps 740 mmHg 72%
11:00 +13°C° 0.2 mm 4 mps 740 mmHg 65%
12:00 +13°C° 0.4 mm 5 mps 739 mmHg 66%
13:00 +14°C° 0.4 mm 5 mps 739 mmHg 66%
14:00 +14°C° 0.4 mm 6 mps 739 mmHg 66%
15:00 +11°C° 0.5 mm 6 mps 739 mmHg 73%
16:00 +9°C° 0.5 mm 5 mps 740 mmHg 80%
17:00 +7°C° 0.5 mm 5 mps 740 mmHg 87%
18:00 +7°C° 0.2 mm 4 mps 740 mmHg 89%
19:00 +7°C° 0.2 mm 3 mps 741 mmHg 90%
20:00 +6°C° 0.2 mm 2 mps 741 mmHg 91%
21:00 +6°C° 0.2 mm 2 mps 741 mmHg 91%
22:00 +6°C° 0.2 mm 2 mps 741 mmHg 91%
23:00 +6°C° 0.2 mm 2 mps 741 mmHg 90%

23 April, Friday

Time Temperature Precipitation Wind Pressure Humidity
00:00 +6°C° 0.1 mm 2 mps 741 mmHg 89%
01:00 +5°C° 0.1 mm 3 mps 741 mmHg 88%
02:00 +4°C° 0.1 mm 3 mps 741 mmHg 87%
03:00 +4°C° 0.1 mm 3 mps 741 mmHg 87%
04:00 +4°C° 0.1 mm 3 mps 741 mmHg 87%
05:00 +3°C° 0.1 mm 3 mps 742 mmHg 87%
06:00 +4°C° 0 mm 3 mps 742 mmHg 84%
07:00 +4°C° 0 mm 4 mps 742 mmHg 81%
08:00 +4°C° 0 mm 4 mps 742 mmHg 77%
09:00 +5°C° 0.1 mm 5 mps 743 mmHg 70%
10:00 +6°C° 0.1 mm 5 mps 743 mmHg 63%
11:00 +7°C° 0.1 mm 6 mps 743 mmHg 55%
12:00 +8°C° 0.2 mm 6 mps 743 mmHg 54%
13:00 +8°C° 0.2 mm 7 mps 743 mmHg 54%
14:00 +8°C° 0.2 mm 7 mps 743 mmHg 53%
15:00 +6°C° 0.1 mm 7 mps 743 mmHg 56%
16:00 +6°C° 0.1 mm 7 mps 743 mmHg 60%
17:00 +6°C° 0.1 mm 7 mps 743 mmHg 63%
18:00 +5°C° 0 mm 6 mps 744 mmHg 66%
19:00 +3°C° 0 mm 5 mps 744 mmHg 70%
20:00 +3°C° 0 mm 4 mps 744 mmHg 73%
21:00 +3°C° 0 mm 4 mps 744 mmHg 75%
22:00 +2°C° 0 mm 5 mps 745 mmHg 77%
23:00 +1°C° 0 mm 5 mps 745 mmHg 78%

24 April, Saturday

Time Temperature Precipitation Wind Pressure Humidity
00:00 0°C° 0 mm 5 mps 745 mmHg 79%
01:00 -1°C° 0 mm 4 mps 745 mmHg 79%
02:00 -1°C° 0 mm 3 mps 746 mmHg 79%
03:00 -1°C° 0 mm 3 mps 746 mmHg 78%
04:00 -2°C° 0 mm 4 mps 746 mmHg 78%
05:00 -2°C° 0 mm 4 mps 746 mmHg 78%
06:00 -1°C° 0 mm 4 mps 746 mmHg 72%
07:00 +1°C° 0 mm 4 mps 746 mmHg 66%
08:00 +2°C° 0 mm 5 mps 746 mmHg 61%
09:00 +3°C° 0 mm 5 mps 746 mmHg 62%
10:00 +4°C° 0 mm 4 mps 746 mmHg 63%
11:00 +5°C° 0 mm 4 mps 746 mmHg 65%
12:00 +5°C° 0.2 mm 5 mps 745 mmHg 68%
13:00 +6°C° 0.2 mm 5 mps 745 mmHg 72%
14:00 +6°C° 0.2 mm 5 mps 745 mmHg 76%
15:00 +6°C° 0.1 mm 5 mps 744 mmHg 76%
16:00 +6°C° 0.1 mm 4 mps 744 mmHg 76%
17:00 +6°C° 0.1 mm 4 mps 744 mmHg 76%
18:00 +7°C° 0.2 mm 3 mps 744 mmHg 81%
19:00 +5°C° 0.2 mm 3 mps 744 mmHg 86%
20:00 +5°C° 0.2 mm 2 mps 744 mmHg 90%
21:00 +4°C° 0 mm 2 mps 744 mmHg 92%
22:00 +3°C° 0 mm 3 mps 744 mmHg 93%
23:00 +2°C° 0 mm 3 mps 744 mmHg 94%

25 April, Sunday

Time Temperature Precipitation Wind Pressure Humidity
00:00 +2°C° 0 mm 3 mps 744 mmHg 94%
01:00 +1°C° 0 mm 4 mps 744 mmHg 94%
02:00 0°C° 0 mm 4 mps 744 mmHg 94%
03:00 0°C° 0 mm 4 mps 744 mmHg 94%
04:00 0°C° 0 mm 4 mps 744 mmHg 93%
05:00 0°C° 0 mm 4 mps 745 mmHg 93%
06:00 +1°C° 0 mm 4 mps 745 mmHg 86%
07:00 +1°C° 0 mm 4 mps 746 mmHg 80%
08:00 +1°C° 0 mm 5 mps 746 mmHg 73%
09:00 +2°C° 0 mm 5 mps 746 mmHg 64%
10:00 +3°C° 0 mm 5 mps 746 mmHg 54%
11:00 +6°C° 0 mm 5 mps 747 mmHg 44%
12:00 +6°C° 0 mm 5 mps 747 mmHg 42%
13:00 +7°C° 0 mm 6 mps 746 mmHg 41%
14:00 +7°C° 0 mm 6 mps 746 mmHg 39%
15:00 +7°C° 0 mm 6 mps 746 mmHg 43%
16:00 +7°C° 0 mm 6 mps 746 mmHg 47%
17:00 +7°C° 0 mm 6 mps 746 mmHg 51%
18:00 +5°C° 0 mm 5 mps 746 mmHg 56%
19:00 +4°C° 0 mm 4 mps 746 mmHg 61%
20:00 +3°C° 0 mm 3 mps 746 mmHg 66%
21:00 +2°C° 0 mm 3 mps 747 mmHg 69%
22:00 +1°C° 0 mm 3 mps 747 mmHg 72%
23:00 +1°C° 0 mm 3 mps 747 mmHg 75%
Show more